TimePDT,TemperatureF,Dew PointF,Humidity,Sea Level PressureIn,VisibilityMPH,Wind Direction,Wind SpeedMPH,Gust SpeedMPH,PrecipitationIn,Events,Conditions,WindDirDegrees,DateUTC
12:54 AM,55.9,53.1,90,30.12,10.0,South,4.6,-,N/A,,Overcast,190,2013-07-18 07:54:00
1:54 AM,55.9,52.0,87,30.11,10.0,West,4.6,-,N/A,,Overcast,260,2013-07-18 08:54:00
2:49 AM,55.4,53.6,94,30.06,2.0,Calm,Calm,-,N/A,,Overcast,0,2013-07-18 09:49:00
2:54 AM,55.0,54.0,96,30.10,4.0,Calm,Calm,-,N/A,,Overcast,0,2013-07-18 09:54:00
3:16 AM,55.4,53.6,94,30.06,1.8,West,6.9,-,N/A,,Overcast,260,2013-07-18 10:16:00
3:25 AM,55.4,53.6,94,30.05,0.5,WSW,5.8,-,N/A,Fog,Fog,250,2013-07-18 10:25:00
3:37 AM,55.4,53.6,94,30.05,0.8,WSW,5.8,-,N/A,,Mist,250,2013-07-18 10:37:00
3:44 AM,55.4,53.6,94,30.06,0.5,SW,5.8,-,N/A,Fog,Fog,230,2013-07-18 10:44:00
3:54 AM,55.0,54.0,96,30.09,0.8,WSW,5.8,-,N/A,,Mist,250,2013-07-18 10:54:00
4:54 AM,55.0,54.0,96,30.10,0.8,West,4.6,-,N/A,,Mist,260,2013-07-18 11:54:00
5:38 AM,53.6,53.6,100,30.06,1.2,West,3.5,-,N/A,,Overcast,260,2013-07-18 12:38:00
5:54 AM,54.0,54.0,100,30.10,1.5,WSW,5.8,-,N/A,Fog,Fog,250,2013-07-18 12:54:00
6:06 AM,53.6,53.6,100,30.07,0.5,West,3.5,-,N/A,Fog,Fog,260,2013-07-18 13:06:00
6:19 AM,53.6,53.6,100,30.07,0.5,WSW,3.5,-,N/A,Fog,Fog,250,2013-07-18 13:19:00
6:54 AM,54.0,52.0,93,30.11,0.5,Calm,Calm,-,N/A,Fog,Fog,0,2013-07-18 13:54:00
7:01 AM,53.6,53.6,100,30.07,5.0,Calm,Calm,-,N/A,,Overcast,0,2013-07-18 14:01:00
7:08 AM,53.6,53.6,100,30.07,0.8,Calm,Calm,-,N/A,,Overcast,0,2013-07-18 14:08:00
7:54 AM,54.0,52.0,93,30.12,0.8,Calm,Calm,-,N/A,,Overcast,0,2013-07-18 14:54:00
8:20 AM,53.6,51.8,94,30.08,2.0,WSW,3.5,-,N/A,,Overcast,240,2013-07-18 15:20:00
8:54 AM,55.0,52.0,89,30.12,2.0,West,3.5,-,N/A,,Overcast,270,2013-07-18 15:54:00
9:11 AM,55.4,51.8,88,30.08,3.0,Calm,Calm,-,N/A,,Overcast,0,2013-07-18 16:11:00
9:37 AM,55.4,53.6,94,30.08,3.0,Calm,Calm,-,N/A,,Overcast,0,2013-07-18 16:37:00
9:54 AM,57.9,52.0,81,30.12,3.0,NW,3.5,-,N/A,,Haze,310,2013-07-18 16:54:00
10:12 AM,59.0,53.6,82,30.07,10.0,Calm,Calm,-,N/A,,Scattered Clouds,0,2013-07-18 17:12:00
10:54 AM,60.1,53.1,78,30.11,10.0,NW,8.1,-,N/A,,Clear,310,2013-07-18 17:54:00
11:16 AM,60.8,53.6,77,30.07,10.0,WNW,6.9,-,N/A,,Partly Cloudy,290,2013-07-18 18:16:00
11:54 AM,60.1,53.1,78,30.11,10.0,West,8.1,-,N/A,,Scattered Clouds,270,2013-07-18 18:54:00
12:01 PM,59.0,53.6,82,30.07,10.0,NW,8.1,-,N/A,,Overcast,310,2013-07-18 19:01:00
12:54 PM,60.1,53.1,78,30.10,10.0,West,8.1,-,N/A,,Scattered Clouds,280,2013-07-18 19:54:00
1:54 PM,62.1,53.1,72,30.10,10.0,West,9.2,-,N/A,,Scattered Clouds,270,2013-07-18 20:54:00
2:54 PM,62.1,53.1,72,30.08,10.0,WNW,10.4,-,N/A,,Clear,290,2013-07-18 21:54:00
3:25 PM,62.6,53.6,72,30.04,10.0,West,8.1,-,N/A,,Partly Cloudy,280,2013-07-18 22:25:00
3:54 PM,62.1,53.1,72,30.07,10.0,WNW,10.4,-,N/A,,Partly Cloudy,300,2013-07-18 22:54:00
4:54 PM,62.1,54.0,75,30.06,10.0,West,10.4,-,N/A,,Clear,280,2013-07-18 23:54:00
5:32 PM,60.8,53.6,77,30.02,10.0,West,10.4,-,N/A,,Partly Cloudy,270,2013-07-19 00:32:00
5:50 PM,59.0,53.6,82,30.02,10.0,West,9.2,-,N/A,,Mostly Cloudy,280,2013-07-19 00:50:00
5:54 PM,59.0,53.1,81,30.05,10.0,West,9.2,-,N/A,,Mostly Cloudy,280,2013-07-19 00:54:00
6:54 PM,57.0,53.1,87,30.05,6.0,SW,9.2,-,N/A,,Overcast,230,2013-07-19 01:54:00
7:12 PM,57.2,53.6,88,30.01,8.0,West,9.2,-,N/A,,Overcast,260,2013-07-19 02:12:00
7:54 PM,55.9,53.1,90,30.05,3.0,SW,6.9,-,N/A,,Overcast,230,2013-07-19 02:54:00
8:54 PM,55.0,52.0,89,30.05,6.0,SSW,6.9,-,N/A,,Overcast,200,2013-07-19 03:54:00
9:54 PM,54.0,52.0,93,30.06,6.0,SW,4.6,-,N/A,,Overcast,220,2013-07-19 04:54:00
10:54 PM,54.0,52.0,93,30.05,7.0,SW,6.9,-,N/A,,Overcast,220,2013-07-19 05:54:00
11:54 PM,55.0,52.0,89,30.04,10.0,West,4.6,-,N/A,,Overcast,260,2013-07-19 06:54:00